Weather History for Pampa, TX

Change the Weather History Date:

Monday, February 18, 2013

  Actual Average Record
Temperature  
Mean Temperature 38 °F -  
Max Temperature 48 °F 52 °F 85 °F (1970)
Min Temperature 28 °F 25 °F 5 °F (1978)
Degree Days  
Heating Degree Days 27    
Moisture  
Dew Point 19 °F    
Average Humidity 45    
Maximum Humidity 70    
Minimum Humidity 25    
Precipitation  
Precipitation 0.00 in - - ()
Sea Level Pressure  
Sea Level Pressure 29.90 in    
Wind  
Wind Speed 17 mph (NNW)    
Max Wind Speed 31 mph    
Max Gust Speed 41 mph    
Visibility 10 miles    
Events      
Averages and records for this station are not official NWS values.
T = Trace of Precipitation, MM = Missing Value Source: NWS Daily Summary

Daily Weather History Graph

Daily Weather History Graph

Search for Another Location

Airport:

Trip Planner

Search our weather history database for the weather conditions in past years. The results will help you decide how hot, cold, wet, or windy it might be!

Date:

Astronomy

Feb. 18, 2013 Rise Set
Actual Time 7:27 AM CST 6:29 PM CST
Civil Twilight 7:01 AM CST 6:55 PM CST
Nautical Twilight 6:31 AM CST 7:24 PM CST
Astronomical Twilight 6:01 AM CST 7:54 PM CST
Moon 12:22 PM CST (2/18) 2:02 AM CST (2/18)
Length of Visible Light 11h 54m
Length of Day
11h 02m
First Quarter, 58% of the Moon is Illuminated
Feb 18
First Quarter
Feb 25
Full
Mar 4
Last Quarter
Mar 11
New
Mar 19
First Quarter

Hourly Weather History & Observations

Time (CST) Temp. Windchill Dew Point Humidity Pressure Visibility Wind Dir Wind Speed Gust Speed Precip Events Conditions
12:15 AM 46.4 °F 39.5 °F 19.4 °F 34% 29.62 in 10.0 mi SW 17.3 mph 28.8 mph N/A   Clear
12:35 AM 46.4 °F 38.7 °F 17.6 °F 32% 29.62 in 10.0 mi SW 20.7 mph 27.6 mph N/A   Clear
12:55 AM 44.6 °F 36.9 °F 19.4 °F 37% 29.62 in 10.0 mi SW 18.4 mph 24.2 mph N/A   Clear
1:15 AM 42.8 °F 34.8 °F 19.4 °F 39% 29.61 in 10.0 mi SSW 17.3 mph - N/A   Clear
1:35 AM 42.8 °F 34.8 °F 19.4 °F 39% 29.61 in 10.0 mi SW 17.3 mph - N/A   Clear
1:55 AM 41.0 °F 33.5 °F 17.6 °F 39% 29.60 in 10.0 mi SW 13.8 mph - N/A   Clear
2:15 AM 41.0 °F 32.5 °F 17.6 °F 39% 29.59 in 10.0 mi SW 17.3 mph - N/A   Clear
2:35 AM 41.0 °F 33.1 °F 17.6 °F 39% 29.59 in 10.0 mi SW 15.0 mph - N/A   Clear
2:55 AM 39.2 °F 31.6 °F 17.6 °F 42% 29.59 in 10.0 mi WSW 12.7 mph - N/A   Clear
3:15 AM 41.0 °F 34.3 °F 17.6 °F 39% 29.60 in 10.0 mi WSW 11.5 mph - N/A   Clear
3:35 AM 41.0 °F 33.1 °F 17.6 °F 39% 29.63 in 10.0 mi WNW 15.0 mph - N/A   Clear
3:55 AM 35.6 °F 27.5 °F 19.4 °F 52% 29.64 in 10.0 mi WNW 11.5 mph - N/A   Clear
4:15 AM 33.8 °F 24.3 °F 19.4 °F 56% 29.65 in 10.0 mi WNW 13.8 mph - N/A   Clear
4:35 AM 35.6 °F 27.5 °F 19.4 °F 52% 29.66 in 10.0 mi NW 11.5 mph - N/A   Clear
4:55 AM 37.4 °F 28.2 °F 19.4 °F 48% 29.67 in 10.0 mi NW 16.1 mph 19.6 mph N/A   Clear
5:15 AM 35.6 °F 26.2 °F 21.2 °F 56% 29.68 in 10.0 mi NNW 15.0 mph - N/A   Clear
5:35 AM 35.6 °F 27.1 °F 23.0 °F 60% 29.69 in 10.0 mi NNW 12.7 mph - N/A   Clear
5:55 AM 35.6 °F 26.6 °F 24.8 °F 65% 29.72 in 10.0 mi NNW 13.8 mph - N/A   Clear
6:15 AM 35.6 °F 25.9 °F 24.8 °F 65% 29.73 in 10.0 mi NNW 16.1 mph 21.9 mph N/A   Clear
6:35 AM 35.6 °F 26.2 °F 24.8 °F 65% 29.75 in 10.0 mi NNW 15.0 mph - N/A   Clear
6:55 AM 33.8 °F 22.8 °F 24.8 °F 70% 29.76 in 10.0 mi NNW 18.4 mph 24.2 mph N/A   Clear
7:15 AM 33.8 °F 22.8 °F 24.8 °F 70% 29.78 in 10.0 mi North 18.4 mph 23.0 mph N/A   Clear
7:35 AM 33.8 °F 23.2 °F 24.8 °F 70% 29.80 in 10.0 mi North 17.3 mph 25.3 mph N/A   Clear
7:55 AM 33.8 °F 22.2 °F 24.8 °F 70% 29.81 in 10.0 mi North 20.7 mph 25.3 mph N/A   Clear
8:15 AM 33.8 °F 21.9 °F 24.8 °F 70% 29.82 in 10.0 mi North 21.9 mph 26.5 mph N/A   Clear
8:55 AM 35.6 °F 24.2 °F 24.8 °F 65% 29.87 in 10.0 mi NNW 21.9 mph 31.1 mph N/A   Clear
9:15 AM 37.4 °F 25.4 °F 24.8 °F 60% 29.89 in 10.0 mi North 27.6 mph 38.0 mph N/A   Clear
9:35 AM 37.4 °F 25.4 °F 24.8 °F 60% 29.90 in 10.0 mi North 27.6 mph 35.7 mph N/A   Clear
9:55 AM 39.2 °F 27.4 °F 23.0 °F 52% 29.91 in 10.0 mi North 29.9 mph 40.3 mph N/A   Clear
10:15 AM 41.0 °F 29.7 °F 23.0 °F 49% 29.92 in 10.0 mi North 31.1 mph 38.0 mph N/A   Scattered Clouds
10:35 AM 41.0 °F 30.0 °F 23.0 °F 49% 29.93 in 10.0 mi NNW 28.8 mph 41.4 mph N/A   Scattered Clouds
10:55 AM 41.0 °F 30.2 °F 23.0 °F 49% 29.95 in 10.0 mi North 27.6 mph 36.8 mph N/A   Scattered Clouds
11:15 AM 41.0 °F 29.8 °F 23.0 °F 49% 29.96 in 10.0 mi North 29.9 mph 38.0 mph N/A   Clear
11:35 AM 42.8 °F 32.3 °F 23.0 °F 46% 29.97 in 10.0 mi North 29.9 mph 36.8 mph N/A   Clear
11:55 AM 42.8 °F 33.1 °F 23.0 °F 46% 29.97 in 10.0 mi North 25.3 mph 34.5 mph N/A   Clear
12:15 PM 44.6 °F 35.3 °F 24.8 °F 46% 29.98 in 10.0 mi NNW 26.5 mph 33.4 mph N/A   Clear
12:35 PM 44.6 °F 36.1 °F 23.0 °F 43% 29.98 in 10.0 mi North 21.9 mph 31.1 mph N/A   Clear
12:55 PM 44.6 °F 35.3 °F 23.0 °F 43% 29.98 in 10.0 mi North 26.5 mph 34.5 mph N/A   Clear
1:15 PM 46.4 °F 37.9 °F 23.0 °F 40% 29.98 in 10.0 mi NNW 25.3 mph 34.5 mph N/A   Clear
1:35 PM 46.4 °F 37.7 °F 21.2 °F 37% 29.98 in 10.0 mi North 26.5 mph 34.5 mph N/A   Mostly Cloudy
1:55 PM 46.4 °F 38.1 °F 21.2 °F 37% 29.97 in 10.0 mi North 24.2 mph 31.1 mph N/A   Overcast
2:15 PM 46.4 °F 38.3 °F 19.4 °F 34% 29.97 in 10.0 mi North 23.0 mph 36.8 mph N/A   Scattered Clouds
2:35 PM 46.4 °F 38.3 °F 17.6 °F 32% 29.98 in 10.0 mi North 23.0 mph 32.2 mph N/A   Clear
3:15 PM 46.4 °F 38.7 °F 15.8 °F 29% 29.99 in 10.0 mi NNW 20.7 mph 28.8 mph N/A   Scattered Clouds
3:35 PM 48.2 °F - 15.8 °F 27% 29.99 in 10.0 mi North 17.3 mph 32.2 mph N/A   Scattered Clouds
3:55 PM 48.2 °F - 14.0 °F 25% 29.99 in 10.0 mi North 24.2 mph 29.9 mph N/A   Scattered Clouds
4:15 PM 48.2 °F - 15.8 °F 27% 30.00 in 10.0 mi North 24.2 mph 28.8 mph N/A   Clear
4:35 PM 46.4 °F 38.1 °F 14.0 °F 27% 30.00 in 10.0 mi NNW 24.2 mph 31.1 mph N/A   Clear
4:55 PM 46.4 °F 38.3 °F 14.0 °F 27% 30.01 in 10.0 mi North 23.0 mph 28.8 mph N/A   Clear
5:15 PM 46.4 °F 38.7 °F 14.0 °F 27% 30.02 in 10.0 mi North 20.7 mph 25.3 mph N/A   Clear
5:35 PM 46.4 °F 40.1 °F 14.0 °F 27% 30.03 in 10.0 mi North 15.0 mph 21.9 mph N/A   Clear
5:55 PM 44.6 °F 37.8 °F 14.0 °F 29% 30.03 in 10.0 mi North 15.0 mph - N/A   Clear
6:15 PM 42.8 °F 37.5 °F 14.0 °F 31% 30.04 in 10.0 mi NNW 9.2 mph - N/A   Clear
6:35 PM 41.0 °F 35.8 °F 14.0 °F 33% 30.05 in 10.0 mi NNW 8.1 mph - N/A   Clear
6:55 PM 35.6 °F 28.6 °F 14.0 °F 41% 30.06 in 10.0 mi North 9.2 mph - N/A   Clear
7:15 PM 37.4 °F 32.8 °F 14.0 °F 38% 30.07 in 10.0 mi NNW 5.8 mph - N/A   Clear
7:35 PM 35.6 °F 30.7 °F 14.0 °F 41% 30.07 in 10.0 mi North 5.8 mph - N/A   Clear
7:55 PM 33.8 °F - 14.0 °F 44% 30.08 in 10.0 mi Calm Calm - N/A   Clear
8:15 PM 35.6 °F - 14.0 °F 41% 30.08 in 10.0 mi Calm Calm - N/A   Clear
8:35 PM 35.6 °F - 14.0 °F 41% 30.10 in 10.0 mi Calm Calm - N/A   Clear
8:55 PM 32.0 °F 28.7 °F 15.8 °F 51% 30.10 in 10.0 mi South 3.5 mph - N/A   Clear
9:15 PM 35.6 °F - 12.2 °F 38% 30.11 in 10.0 mi Calm Calm - N/A   Clear
9:35 PM 35.6 °F 32.8 °F 12.2 °F 38% 30.11 in 10.0 mi SE 3.5 mph - N/A   Clear
9:55 PM 35.6 °F 31.7 °F 14.0 °F 41% 30.11 in 10.0 mi SE 4.6 mph - N/A   Clear
10:15 PM 28.4 °F 23.3 °F 17.6 °F 64% 30.12 in 10.0 mi SSE 4.6 mph - N/A   Clear
10:35 PM 32.0 °F 27.5 °F 15.8 °F 51% 30.12 in 10.0 mi SSE 4.6 mph - N/A   Clear
10:55 PM 32.0 °F 27.5 °F 15.8 °F 51% 30.12 in 10.0 mi SE 4.6 mph - N/A   Clear
11:15 PM 32.0 °F 26.4 °F 15.8 °F 51% 30.12 in 10.0 mi SE 5.8 mph - N/A   Clear
11:35 PM 33.8 °F 28.6 °F 15.8 °F 48% 30.12 in 10.0 mi SE 5.8 mph - N/A   Clear
11:55 PM 32.0 °F 25.6 °F 15.8 °F 51% 30.12 in 10.0 mi SE 6.9 mph - N/A   Clear